Location: Harbor View
(36.2448°N, 86.5797°W)
Time: 09:03:04
(UTC+00:00)

Cosmos 2227 Rocket - Pass Details

Date: 29 October 2020
Orbit: 838 x 846 km, 71.0° (Epoch: 04 December)

Event Time Altitude Azimuth Distance (km) Brightness Sun altitude
Rises 23:41:25 0° 342° (NNW) 3,403 5.5 -10.4°
Reaches altitude 10° 23:43:56 10° 347° (NNW) 2,466 4.7 -10.9°
Maximum altitude 23:49:29 56° 65° (ENE) 1,001 2.3 -12.0°
Drops below altitude 10° 23:55:01 10° 144° (SE) 2,457 4.3 -13.1°
Sets 23:57:30 0° 148° (SSE) 3,389 5.1 -13.6°
